Flag for Morocco Weather past 2 weeks in Marrakech, Morocco

Now
66 °F

Clear.


Feels Like: 66 °F
Forecast: 64 / 87 °F
Wind: 5 mph from Southeast

Location: Marrakech Airport

Current Time: Oct 23, 2014 at 6:32:32 AM

Latest Report: Oct 23, 2014 at 6:00 AM


Visibility: 10 mi

Pressure: 30.07 "Hg

Humidity: 35%

Dew point: 37 °F

Location of MarrakechLocation

Historic Weather in Marrakech — Graph

°F

Marrakech temperature yesterday

Maximum temperature yesterday: 97 °F (at 3:30 PM)
Minimum temperature yesterday: 64 °F (at 7:00 AM)
Average temperature yesterday: 81 °F

Past Weeks' High & Low Weather Summary

 TemperatureHumidityPressure
High97 °F (Oct 19, 3:00 PM)100% (Oct 9, 6:30 AM)30.21 "Hg (Oct 9, 6:30 AM)
Low59 °F (Oct 9, 8:00 AM)9% (Oct 20, 4:30 PM)29.83 "Hg (Oct 19, 3:00 PM)
Average75 °F51%30.04 "Hg
* Reported Oct 8 5:00 AM — Oct 23 5:30 AM, Marrakech, Weather by CustomWeather, © 2014

Note: Actual official high and low records may vary slightly from our data, if they occured in-between our weather recording intervals... More about our weather records

Advertising

Marrakech weather history for previous 24 hours

 ConditionsComfort  
Time TempWeatherWind HumidityBarometerVisibility
5:30 AM
Oct 23
64 °FClear.5 mph37%30.07 "Hg10 mi
5:00 AM66 °FClear.5 mph35%30.07 "Hg10 mi
4:30 AM68 °FMild.3 mph33%30.07 "HgN/A
4:00 AM70 °FMild.1 mph27%30.07 "HgN/A
3:30 AM70 °FMild.No wind27%30.07 "HgN/A
3:00 AM72 °FClear.1 mph25%30.07 "Hg10 mi
2:30 AM73 °FClear.1 mph23%30.09 "Hg10 mi
2:00 AM75 °FClear.6 mph25%30.09 "Hg10 mi
1:30 AM73 °FClear.No wind23%30.09 "Hg10 mi
1:00 AM77 °FClear.1 mph21%30.09 "Hg10 mi
12:30 AM75 °FClear.3 mph22%30.12 "Hg10 mi
12:00 AM75 °FClear.No wind22%30.12 "Hg10 mi
11:30 PM
Oct 22
77 °FPassing clouds.3 mph21%30.12 "HgN/A
11:00 PM75 °FPassing clouds.7 mph24%30.12 "HgN/A
10:30 PM81 °FClear.No wind21%30.12 "Hg10 mi
10:00 PM81 °FClear.2 mph20%30.12 "Hg5 mi
9:30 PM81 °FClear.No wind20%30.12 "Hg10 mi
9:00 PM82 °FPassing clouds.3 mph17%30.12 "HgN/A
8:30 PM84 °FClear.No wind16%30.09 "Hg10 mi
8:00 PM86 °FClear.No wind17%30.09 "Hg10 mi
7:30 PM88 °FClear.3 mph15%30.09 "Hg10 mi
7:00 PM91 °FClear.2 mph14%30.09 "Hg10 mi
6:30 PM93 °FPassing clouds.5 mph13%30.07 "HgN/A
6:00 PM95 °FPassing clouds.5 mph12%30.07 "HgN/A
5:30 PM97 °FPassing clouds.7 mph12%30.07 "HgN/A
5:00 PM97 °FPassing clouds.3 mph11%30.07 "HgN/A
4:30 PM97 °FPassing clouds.6 mph12%30.07 "HgN/A
4:00 PM97 °FSunny.3 mph12%30.07 "Hg10 mi
3:30 PM97 °FPassing clouds.6 mph12%30.09 "HgN/A
3:00 PM95 °FPassing clouds.5 mph11%30.09 "HgN/A
2:30 PM93 °FPassing clouds.6 mph13%30.09 "HgN/A
2:00 PM93 °FSunny.3 mph13%30.12 "Hg10 mi
1:30 PM91 °FSunny.5 mph15%30.12 "Hg10 mi
1:00 PM90 °FPassing clouds.5 mph17%30.15 "HgN/A
12:30 PM88 °FPassing clouds.6 mph18%30.15 "HgN/A
12:00 PM86 °FPassing clouds.3 mph20%30.18 "HgN/A
11:30 AM84 °FClear.3 mph22%30.18 "Hg6 mi
11:00 AM82 °FSunny.2 mph20%30.18 "Hg10 mi
10:30 AM81 °FSunny.1 mph21%30.18 "Hg10 mi
10:00 AM77 °FSunny.No wind28%30.18 "Hg10 mi
9:30 AM72 °FSunny.2 mph33%30.18 "Hg10 mi
9:00 AM68 °FPassing clouds.3 mph40%30.18 "HgN/A
8:00 AM64 °FSunny.2 mph34%30.18 "Hg10 mi
7:30 AM64 °FSunny.2 mph37%30.15 "Hg10 mi
7:00 AM64 °FSunny.5 mph37%30.15 "Hg10 mi
6:30 AM66 °FPassing clouds.3 mph35%30.15 "HgN/A
6:00 AM68 °FClear.2 mph30%30.15 "Hg10 mi
Weather by CustomWeather, © 2014

See weather overviewHow to use our weather pages